[Iaude] MPEC O100: 2024 OT [a=1.19,e=0.30,i=5.5,H=24.8]
    mpec at cfa.harvard.edu 
    mpec at cfa.harvard.edu
       
    Tue Jul 30 09:58:25 EDT 2024
    
    
  
M.P.E.C. 2024-O100                                Issued 2024 July 30, 13:57 UT
     The Minor Planet Electronic Circulars contain information on unusual
         minor planets, routine data on comets and natural satellites,
         and occasional editorial announcements.  They are published
    on behalf of Division F of the International Astronomical Union by the
          Minor Planet Center, Smithsonian Astrophysical Observatory,
                          Cambridge, MA 02138, U.S.A.
			  
             Prepared using the Tamkin Foundation Computer Network
                              MPC at CFA.HARVARD.EDU
            URL https://www.minorplanetcenter.net/    ISSN 1523-6714
                                    2024 OT                                     
Observations:
     K24O00T* C2024 07 27.46266621 54 53.893-26 06 27.68         20.34wXEO100F52
     K24O00T  C2024 07 27.47448121 54 49.731-26 07 07.64         20.25wXEO100F52
     K24O00T  C2024 07 27.49814621 54 41.385-26 08 26.94         20.26wXEO100F52
     K24O00T  C2024 07 27.61421421 54 01.239-26 14 37.21         19.97GVEO100F52
     K24O00T  C2024 07 27.61487021 54 01.022-26 14 39.20         20.06GVEO100F52
     K24O00T |C2024 07 29.10013021 47 18.590-27 26 25.60         20.3 GVEO100807
     K24O00T |C2024 07 29.10285021 47 17.820-27 26 33.50         20.4 GVEO100807
     K24O00T |C2024 07 29.10564021 47 17.000-27 26 41.70         20.0 GVEO100807
     K24O00T 3C2024 07 29.50028321 45 29.900-27 45 28.04         20.53GVEO100T14
     K24O00T 3C2024 07 29.50125921 45 29.606-27 45 30.52         20.52GVEO100T14
     K24O00T 3C2024 07 29.50223721 45 29.318-27 45 32.93         20.54GVEO100T14
Observer details:
807 Cerro Tololo Observatory, La Serena.  Observers T. Linder, R. Holmes.
    0.61-m f/6.8 Ritchey-Chretien + CCD.
F52 Pan-STARRS 2, Haleakala.  Observers J. Herman, T. Lowe, P. Minguez, A.
    Schultz, I. Smith.  Measurers K. Chambers, T. de Boer, J. Fairlamb, H.
    Gao, M. Huber, C.-C. Lin, E. Magnier, Y. Ramanjooloo, R. Wainscoat, R.
    Weryk.  1.8-m Ritchey-Chretien + CCD.
T14 Canada-France-Hawaii Telescope, Maunakea.  Observers R. Wainscoat, J.
    Silva, H. Flewelling.  Measurers R. Weryk, R. Wainscoat.  3.6-m f/4.1
    reflector + CCD.
Orbital elements:
2024 OT                                                  Earth MOID = 0.0065 AU
Epoch 2024 Oct. 17.0 TT = JDT 2460600.5                 MPC                     
M 118.27442              (2000.0)            P               Q                  
n   0.75813282     Peri.   98.55444     -0.81315738     +0.57580676             
a   1.1911666      Node   116.64393     -0.56440032     -0.74438252             
e   0.3016364      Incl.    5.45571     -0.14222289     -0.33814381             
P   1.30           H   24.84          G   0.15           U   7                  
Residuals in seconds of arc
240727 F52  0.0   0.1-    240727 F52  0.0   0.1-    240729 T14  0.0   0.0
240727 F52  0.0   0.1+    240729 807  0.1+  0.1+    240729 T14  0.0   0.0
240727 F52  0.1-  0.0     240729 807  0.2+  0.0     240729 T14  0.0   0.0
240727 F52  0.0   0.1-    240729 807  0.1-  0.1-
Ephemeris:
2024 OT                  a,e,i = 1.19, 0.30, 5                   q = 0.8319
Date    TT    R. A. (2000) Decl.     Delta      r    Elong.  Phase     V
2024 06 30    06 29 31.4 +47 09 45   0.06964 0.9535    24.0   154.3    28.3
...
2024 07 15    00 18 34.1 +10 24 18   0.02981 1.0241   104.1    74.2    19.9
...
2024 07 23    22 23 16.8 -20 14 36   0.05548 1.0637   148.8    29.7    20.0
...
2024 07 29    21 47 39.3 -27 22 16   0.08249 1.0936   161.0    17.6    20.5
2024 07 30    21 43 27.9 -28 04 39   0.08729 1.0986   162.1    16.5    20.6
2024 07 31    21 39 36.9 -28 41 52   0.09215 1.1036   163.1    15.5    20.7
...
2024 08 06    21 21 58.8 -31 08 24   0.1228  1.1334   165.0    13.4    21.3
...
2024 08 14    21 08 08.7 -32 25 12   0.1673  1.1724   160.9    16.4    22.2
...
2024 08 29    20 59 02.1 -32 11 57   0.2630  1.2426   148.9    24.8    23.6
A. U. Tomatic                (C) Copyright 2024 MPC           M.P.E.C. 2024-O100
    
    
More information about the Iaude
mailing list